Location: Koslow
(50.3020°N, 18.5663°E)
Time: 00:33:54
(UTC+00:00)

Daily predictions for brighter satellites

Satellite Brightness Start Highest point End
(mag) Time Altitude Azimuth Time Altitude Azimuth Time Altitude Azimuth
STARLINK-1348 3.7 00:00:01 10° WNW 00:03:05 52° N 00:06:10 10° E
STARLINK-1330 3.7 00:00:21 10° WNW 00:03:25 52° N 00:06:29 10° E
STARLINK-1363 3.7 00:00:41 10° WNW 00:03:45 52° N 00:06:49 10° E
STARLINK-1337 3.7 00:01:03 10° WNW 00:04:08 52° N 00:07:12 10° E
STARLINK-1289 3.5 00:02:34 29° SSW 00:04:11 53° SSE 00:07:51 10° ENE
STARLINK-1342 3.7 00:01:23 10° WNW 00:04:27 52° N 00:07:31 10° E
STARLINK-1364 3.7 00:01:43 10° WNW 00:04:47 52° N 00:07:51 10° E
STARLINK-1376 3.7 00:02:02 10° WNW 00:05:07 52° N 00:08:11 10° E
STARLINK-1268 2.9 00:04:29 37° SSW 00:05:23 55° SSE 00:08:24 10° ENE
STARLINK-1360 3.7 00:02:23 10° WNW 00:05:28 52° N 00:08:32 10° E
DELTA 2 DEB (DPAF) 4.1 00:02:35 21° SSE 00:05:35 82° WSW 00:10:06 10° NNW
STARLINK-1301 3.5 00:03:56 27° SW 00:05:47 57° SSE 00:09:34 10° ENE
STARLINK-1361 3.7 00:02:44 10° WNW 00:05:49 52° N 00:08:52 10° E
STARLINK-1367 3.7 00:03:00 10° WNW 00:06:06 53° N 00:09:12 10° E
STARLINK-1366 3.7 00:03:23 10° WNW 00:06:28 52° N 00:09:32 10° E
Cosmos 1400 Rocket 2.8 00:02:32 10° NNW 00:06:42 77° W 00:09:10 23° S
STARLINK-1303 3.5 00:05:53 28° SW 00:07:38 56° SSE 00:11:20 10° ENE
Cosmos 2227 Rocket 3.9 00:04:45 10° WNW 00:08:10 17° W 00:10:11 14° WSW
Cosmos 1570 Rocket 4.3 00:04:53 21° SW 00:08:27 63° WNW 00:13:42 10° NNE
STARLINK-66 2.8 00:07:08 26° WSW 00:08:47 79° SSE 00:12:00 10° ENE
Cosmos 1709 Rocket 4.3 00:05:05 21° SSW 00:09:14 58° WNW 00:15:22 10° N
Cosmos 1763 Rocket 4.4 00:05:57 16° WSW 00:09:44 40° WNW 00:14:32 10° NNE
STARLINK-1316 2.9 00:09:24 33° SW 00:10:32 60° SSE 00:13:37 10° ENE
STARLINK-1338 4.2 00:06:40 10° WNW 00:10:37 58° N 00:14:33 10° E
STARLINK-1312 3.4 00:09:13 26° SW 00:11:07 59° SSE 00:14:50 10° ENE
STARLINK-1257 2.9 00:10:14 33° SW 00:11:25 61° SSE 00:14:31 10° ENE
STARLINK-1256 2.9 00:11:11 32° SW 00:12:23 61° SSE 00:15:29 10° ENE
STARLINK-58 3.2 00:11:42 33° SSW 00:12:41 47° SSE 00:15:46 10° ENE
STARLINK-1213 2.8 00:12:02 32° SW 00:13:16 62° SSE 00:16:21 10° ENE
Cosmos 2084 Rocket 4.5 00:09:32 10° WNW 00:13:26 29° WSW 00:14:58 24° SSW
STARLINK-52 2.9 00:10:32 10° WNW 00:13:46 85° NNE 00:16:59 10° ESE
Meteor 1-27 4.2 00:08:29 10° NNW 00:14:05 85° E 00:19:01 14° SSE
STARLINK-1263 2.8 00:12:53 31° SW 00:14:09 63° SSE 00:17:15 10° ENE
Cosmos 2227 4.2 00:09:18 10° NNW 00:15:03 74° WSW 00:20:47 10° SSE
STARLINK-1259 2.8 00:13:47 30° SW 00:15:05 64° SSE 00:18:12 10° ENE
STARLINK-1265 2.8 00:14:10 30° SW 00:15:30 64° SSE 00:18:38 10° ENE
Cosmos 2298 Rocket 4.1 00:10:39 10° NNW 00:15:53 60° WSW 00:19:50 17° S
STARLINK-1285 2.8 00:14:37 30° SW 00:15:58 65° SSE 00:19:04 10° ENE
SL-16 R/B 2.5 00:10:23 11° SSE 00:16:21 88° ENE 00:22:36 10° NNW
STARLINK-1296 2.8 00:16:22 29° SW 00:17:46 67° SSE 00:20:53 10° ENE
Cosmos 1758 Rocket 4.4 00:15:28 20° SW 00:18:02 40° WNW 00:22:15 10° N
GEOS 3 Rocket 3.9 00:12:53 10° SE 00:18:04 73° NE 00:23:24 10° NW
STARLINK-1260 2.8 00:17:14 28° SW 00:18:40 67° SSE 00:21:47 10° ENE
STARLINK-1371 4.1 00:15:03 10° WNW 00:18:59 59° N 00:22:54 10° E
STARLINK-1318 2.8 00:18:07 28° SW 00:19:34 68° SSE 00:22:41 10° ENE
STARLINK-75 2.8 00:18:02 22° WSW 00:20:01 84° SSE 00:23:16 10° ENE
STARLINK-1275 2.8 00:18:59 27° SW 00:20:29 69° SSE 00:23:36 10° ENE
STARLINK-48 4.0 00:19:05 25° SSW 00:20:49 42° SSE 00:24:31 10° ENE
STARLINK-1309 2.8 00:19:50 27° SW 00:21:22 70° SSE 00:24:29 10° ENE
Cosmos 1844 Rocket 4.5 00:16:21 10° NNW 00:21:26 33° NE 00:26:27 10° ESE
STARLINK-1282 2.8 00:20:42 26° SW 00:22:15 71° SSE 00:25:23 10° ENE
Cosmos 489 Rocket 4.5 00:18:08 20° SSW 00:22:40 89° SE 00:29:00 10° NNE
STARLINK-1283 3.5 00:20:03 19° WSW 00:22:56 73° SSE 00:27:03 10° ENE
STARLINK-1313 2.7 00:21:38 24° WSW 00:23:22 78° SSE 00:26:30 10° ENE
STARLINK-1341 4.1 00:19:26 10° WNW 00:23:23 60° N 00:27:18 10° E
STARLINK-80 3.3 00:21:06 21° SW 00:23:35 71° SSE 00:27:22 10° ENE
STARLINK-1279 2.7 00:22:33 23° WSW 00:24:18 79° SSE 00:27:25 10° ENE
STARLINK-1298 2.8 00:23:16 25° WSW 00:24:55 74° SSE 00:28:03 10° ENE
Iridium 2 4.1 00:21:26 10° N 00:25:11 59° E 00:28:19 14° SSE
STARLINK-1293 2.8 00:24:10 24° WSW 00:25:52 75° SSE 00:28:59 10° ENE
SL-16 R/B 2.9 00:22:44 16° S 00:26:58 44° ESE 00:32:20 10° NE
STARLINK-1255 2.7 00:25:54 23° WSW 00:27:39 76° SSE 00:30:48 10° ENE
STARLINK-1374 4.1 00:23:46 10° WNW 00:27:45 61° N 00:31:43 10° E
STARLINK-22 2.8 00:26:16 21° WSW 00:28:16 81° SSE 00:31:28 10° ENE
STARLINK-1297 3.2 00:26:32 21° SW 00:28:51 72° SSE 00:32:28 10° ENE
STARLINK 1040 3.3 00:26:23 10° W 00:28:53 47° N 00:31:23 10° ENE
STARLINK-1311 2.6 00:28:27 22° WSW 00:30:14 88° SSE 00:33:12 10° ENE
CZ-2D R/B 2.2 00:25:40 10° NNE 00:30:54 70° ESE 00:35:02 16° S
STARLINK-1339 4.0 00:28:02 10° WNW 00:32:00 62° N 00:35:57 10° E
Cosmos-2242 4.3 00:28:46 10° NNW 00:32:19 26° W 00:34:23 18° SW
MOZ.5/SAFIR/RUBIN 5/SL-8 3.9 00:29:15 19° S 00:32:31 56° W 00:37:07 10° NNW
Nadezhda 3 Rocket 4.2 00:26:25 10° N 00:32:46 74° E 00:39:07 10° SSE
USA 215 4.0 00:28:06 12° S 00:33:13 30° SW 00:38:53 10° WNW
Cosmos 2221 2.6 00:31:00 10° N 00:35:24 82° E 00:39:28 12° SSE
Cosmos 1953 Rocket 4.1 00:33:32 19° SW 00:36:21 46° WNW 00:40:37 10° N
STARLINK-1377 4.0 00:32:27 10° WNW 00:36:26 63° N 00:40:25 10° E
BREEZE-M R/B 2.5 00:33:53 10° W 00:38:56 83° S 00:41:48 10° E
STARLINK-42 3.0 00:36:26 14° WSW 00:39:01 76° NNW 00:42:09 10° ENE
GP-B 3.4 00:35:33 10° N 00:39:55 54° W 00:42:59 18° SSW
STARLINK-1353 4.0 00:36:47 10° WNW 00:40:47 65° N 00:44:46 10° E
STARLINK-1029 3.0 00:39:04 23° SW 00:40:50 60° SSE 00:43:58 10° ENE
STARLINK-60 3.5 00:38:41 10° W 00:41:38 34° SSW 00:44:34 10° SSE
CZ-4C R/B 3.9 00:38:34 18° S 00:41:43 52° W 00:46:05 10° NNW
STARLINK-34 2.7 00:40:02 21° WSW 00:41:57 74° SSE 00:45:02 10° ENE
FALCON 9 DEB 3.1 00:38:43 10° WNW 00:42:10 90° NNE 00:45:39 10° ESE
Cosmos 1315 Rocket 2.7 00:38:19 10° NNW 00:42:16 83° W 00:45:45 13° S
Cosmos 1842 Rocket 3.6 00:37:52 10° NNW 00:42:21 72° W 00:46:04 14° S
STARLINK-41 2.9 00:40:11 14° WSW 00:42:45 75° NNW 00:45:48 10° ENE
STARLINK-1272 3.1 00:42:01 15° WSW 00:44:55 88° SSE 00:48:29 10° ENE
STARLINK-1319 4.4 00:42:43 19° SSW 00:45:05 36° SE 00:48:54 10° ENE
STARLINK-1375 3.9 00:41:09 10° WNW 00:45:10 66° NNE 00:49:10 10° E
Cosmos 540 Rocket 4.4 00:41:07 14° WSW 00:45:13 40° WNW 00:50:04 10° NNE
STARLINK-62 2.7 00:43:44 19° WSW 00:45:48 78° SSE 00:48:52 10° ENE
Cosmos 2360 Rocket 3.6 00:44:28 10° SSE 00:49:19 30° ESE 00:54:11 10° NE
STARLINK-1350 3.9 00:45:30 10° WNW 00:49:30 68° NNE 00:53:30 10° E
STARLINK-1277 4.4 00:47:31 19° SSW 00:50:03 38° SE 00:53:55 10° ENE
STARLINK-1307 3.3 00:46:48 13° WSW 00:50:05 90° NW 00:53:49 10° ENE
STARLINK-1290 3.3 00:50:11 12° WSW 00:53:36 87° NNW 00:57:20 10° ENE
STARLINK-1352 3.9 00:49:45 10° WNW 00:53:45 69° NNE 00:57:45 10° E
Cosmos 2058 3.4 00:50:48 12° S 00:54:37 60° E 00:58:47 10° NNE
STARLINK-1276 4.3 00:52:19 18° SSW 00:55:01 41° SE 00:58:56 10° ENE
Shenzhou-11 Module 3.6 00:56:40 14° SSE 00:56:40 14° SSE 00:57:35 10° SE
Cosmos 2074 Rocket 4.2 00:51:22 15° SSW 00:56:35 63° WNW 01:02:50 10° N
Cosmos 1980 Rocket 3.0 00:51:50 12° WSW 00:56:49 44° NW 01:02:16 10° NNE
STARLINK-1368 3.8 00:54:20 10° WNW 00:58:22 72° NNE 01:02:24 10° E
CZ-4B R/B 3.6 00:54:27 10° NNE 00:59:45 87° ESE 01:04:34 13° SSW
STARLINK-1305 4.2 00:57:04 17° SSW 00:59:57 44° SSE 01:03:54 10° ENE
STARLINK-1306 4.1 00:57:24 17° SW 01:00:24 46° SSE 01:04:27 10° ENE
STARLINK-1317 3.5 00:56:41 10° WSW 01:00:36 81° NNW 01:04:31 10° ENE
STARLINK-1369 3.8 00:58:46 10° WNW 01:02:48 74° NNE 01:06:50 10° ESE
STARLINK-55 3.5 01:01:18 10° W 01:04:28 58° NNW 01:07:39 10° ENE
STARLINK-1274 3.3 01:01:03 10° WSW 01:04:36 77° NNW 01:08:09 10° ENE
STARLINK-1262 4.1 01:01:53 16° SW 01:04:57 47° SSE 01:08:57 10° ENE
STARLINK-43 4.0 01:02:19 10° W 01:05:57 55° N 01:09:35 10° ENE
STARLINK-1372 3.7 01:03:00 10° WNW 01:07:02 76° NNE 01:11:03 10° ESE
Cosmos 2219 Rocket 4.5 01:04:08 10° SE 01:07:23 16° E 01:10:39 10° ENE
STARLINK-1291 3.5 01:04:36 10° WSW 01:08:19 76° NNW 01:12:04 10° ENE
ADEOS II 2.5 01:03:45 10° NNE 01:08:58 61° ESE 01:14:10 10° S
IRIDIUM 106 4.4 01:03:53 10° S 01:09:06 85° E 01:14:22 10° N
STARLINK-1300 4.0 01:06:40 15° SW 01:09:54 50° SSE 01:13:56 10° ENE
Cosmos 2263 Rocket 2.9 01:05:52 10° NW 01:10:51 34° WSW 01:15:47 10° S
STARLINK-1264 3.5 01:07:54 10° WSW 01:11:38 74° NNW 01:15:23 10° ENE
STARLINK-1378 3.7 01:07:38 10° WNW 01:11:41 79° NNE 01:15:42 10° ESE
IRS-1D 3.7 01:06:57 10° NNE 01:12:17 80° ESE 01:17:27 10° SSW
Meteor 1-28 Rocket 4.4 01:09:03 10° SE 01:12:37 44° ENE 01:16:11 10° N
AQUA 3.9 01:09:13 10° N 01:13:58 71° WNW 01:18:24 12° SSW
STARLINK-29 3.5 01:11:27 10° WNW 01:14:26 36° SSW 01:17:22 10° SE
STARLINK-1295 3.9 01:11:26 14° SW 01:14:51 53° SSE 01:18:54 10° ENE
NOSS 2-1 (C) 3.0 01:12:04 14° SW 01:14:52 87° NW 01:18:38 10° NE
Cosmos 2341 Rocket 4.3 01:08:34 10° S 01:14:53 72° E 01:21:11 10° NNE
STARLINK-1267 3.6 01:11:16 10° W 01:15:00 72° NNW 01:18:45 10° ENE
SL-4 R/B 3.1 01:11:43 10° W 01:15:57 31° SW 01:20:03 10° SSE
STARLINK-28 3.7 01:12:53 10° W 01:16:02 54° N 01:19:12 10° ENE
STARLINK-1379 3.6 01:12:08 10° WNW 01:16:11 81° NNE 01:20:13 10° ESE
USA 229 DEB 4.3 01:10:18 10° NW 01:17:04 42° WSW 01:24:06 10° S
USA 229 4.3 01:10:24 10° NW 01:17:11 43° WSW 01:24:13 10° S
STARLINK-64 3.2 01:14:12 12° WSW 01:17:30 76° SSE 01:21:06 10° ENE
NPP 3.9 01:12:32 10° N 01:17:51 60° WNW 01:22:54 11° SSW
NOSS 3-1 (C) 4.5 01:10:58 10° NW 01:17:57 41° WSW 01:25:50 10° S
ARIANE 5 R/B 3.4 01:13:52 10° NNE 01:18:43 46° E 01:23:29 10° S
NOSS 2-1 (D) 3.0 01:16:50 13° SW 01:19:46 78° NW 01:23:33 10° NE
STARLINK-1287 3.8 01:16:12 13° SW 01:19:49 56° SSE 01:23:53 10° ENE
STARLINK-1329 3.6 01:15:56 10° WNW 01:19:59 84° NNE 01:24:02 10° ESE
STARLINK-1207 3.6 01:18:02 10° W 01:21:47 69° NNW 01:25:32 10° ENE
ERS-2 3.1 01:19:03 10° SE 01:22:36 50° ENE 01:26:10 10° N
STARLINK-1362 3.6 01:20:27 10° WNW 01:24:31 87° NNE 01:28:35 10° ESE
CZ-4C R/B 4.0 01:19:48 10° W 01:24:48 31° NNW 01:30:41 10° NE
IRS-1C 4.4 01:19:29 10° NNE 01:24:50 68° ESE 01:30:08 10° S
BREEZE-M DEB (TANK) 2.0 01:23:14 11° WSW 01:25:07 63° SSE 01:28:55 10° E
STARLINK-1266 3.7 01:21:28 10° W 01:25:12 67° NNW 01:28:57 10° ENE
Cosmos 1844 4.2 01:19:25 10° NNW 01:25:15 70° ENE 01:31:02 10° SE
Cosmos 1892 2.7 01:21:53 11° SSW 01:25:27 67° W 01:29:14 10° N
STARLINK-33 3.7 01:23:11 10° W 01:26:15 52° N 01:29:18 10° ENE
NOSS 3-1 (A) 4.3 01:19:00 10° NW 01:26:16 52° WSW 01:34:31 10° SSE
STARLINK-1299 3.7 01:24:06 10° WSW 01:28:17 70° SSE 01:32:32 10° ENE
STARLINK-1284 3.7 01:24:51 10° W 01:28:36 66° NNW 01:32:21 10° ENE
STARLINK-1373 3.5 01:25:00 10° WNW 01:29:02 90° NNE 01:33:05 10° ESE
STARLINK-1320 2.8 01:26:03 10° WNW 01:29:11 71° SSW 01:32:17 10° ESE
STARLINK-1322 2.8 01:26:25 10° WNW 01:29:32 70° SSW 01:32:38 10° ESE
BREEZE-M DEB (TANK) 1.2 01:27:17 10° W 01:29:32 56° SSW 01:32:30 10° ESE
Cosmos 1869 4.3 01:26:23 10° NNW 01:29:44 28° W 01:33:00 10° SSW
STARLINK-26 3.8 01:26:21 10° W 01:29:44 54° N 01:33:08 10° ENE
STARLINK-1302 3.7 01:25:46 11° SW 01:29:44 64° SSE 01:33:51 10° ENE
STARLINK-1324 2.8 01:26:44 10° WNW 01:29:51 70° SSW 01:32:57 10° ESE
STARLINK-1294 2.8 01:27:02 10° WNW 01:30:10 70° SSW 01:33:18 10° ESE
STARLINK-1261 2.8 01:27:25 10° WNW 01:30:32 69° SSW 01:33:39 10° ESE
STARLINK-1325 2.8 01:27:46 10° WNW 01:30:53 69° SSW 01:33:59 10° ESE
STARLINK-1333 2.8 01:28:09 10° WNW 01:31:15 68° SSW 01:34:21 10° ESE
STARLINK-1334 2.8 01:28:25 10° WNW 01:31:32 68° SSW 01:34:38 10° ESE
STARLINK-1326 2.8 01:28:45 10° WNW 01:31:51 68° SSW 01:34:57 10° ESE
STARLINK-1258 3.8 01:28:19 10° W 01:32:03 65° NNW 01:35:47 10° ENE
STARLINK-1323 2.8 01:29:08 10° WNW 01:32:14 67° SSW 01:35:20 10° ESE
STARLINK-1349 2.8 01:29:26 10° WNW 01:32:32 67° SSW 01:35:38 10° ESE
STARLINK-1336 2.8 01:29:45 10° WNW 01:32:51 67° SSW 01:35:57 10° ESE
STARLINK-1331 2.8 01:30:08 10° WNW 01:33:15 67° SSW 01:36:20 10° ESE
STARLINK-1344 2.8 01:30:26 10° WNW 01:33:32 66° SSW 01:36:39 10° ESE
STARLINK-1390 3.5 01:29:34 10° WNW 01:33:39 87° SSW 01:37:42 10° ESE
STARLINK-1343 2.8 01:30:49 10° WNW 01:33:55 66° SSW 01:37:01 10° ESE
STARLINK-1346 2.8 01:31:05 10° WNW 01:34:14 66° SSW 01:37:22 10° ESE
STARLINK-1328 2.8 01:31:32 10° WNW 01:34:39 65° SSW 01:37:44 10° ESE
STARLINK-1273 3.7 01:30:35 10° SW 01:34:42 68° SSE 01:38:50 10° ENE
SL-8 Rocket 4.2 01:28:34 10° S 01:34:50 75° E 01:41:05 10° NNE
STARLINK-1354 2.8 01:31:50 10° WNW 01:34:55 65° SSW 01:38:02 10° SE
STARLINK-1347 2.8 01:32:07 10° WNW 01:35:13 65° SSW 01:38:18 10° SE
Cosmos 2322 Rocket 2.3 01:29:42 10° SW 01:35:17 75° WNW 01:40:56 10° NNE
STARLINK-1292 3.8 01:31:46 10° W 01:35:29 63° NNW 01:39:13 10° ENE
STARLINK-1357 2.8 01:32:33 10° WNW 01:35:39 64° SSW 01:38:45 10° SE
STARLINK-1335 2.8 01:32:50 10° WNW 01:35:56 64° SSW 01:39:01 10° SE
STARLINK-1327 2.8 01:33:11 10° WNW 01:36:17 64° SSW 01:39:22 10° SE
STARLINK-1340 2.8 01:33:28 10° WNW 01:36:34 63° SSW 01:39:40 10° SE
In-Cosmos 22 Rocket 4.4 01:31:14 10° SSW 01:36:45 62° WNW 01:42:10 10° N
STARLINK-1356 2.8 01:33:52 10° WNW 01:36:58 63° SSW 01:40:03 10° SE
STARLINK-1345 2.8 01:34:10 10° WNW 01:37:16 63° SSW 01:40:21 10° SE
STARLINK-1355 2.8 01:34:32 10° WNW 01:37:38 62° SSW 01:40:43 10° SE
STARLINK-1321 2.8 01:34:53 10° WNW 01:37:59 62° SSW 01:41:03 10° SE
STARLINK-1358 2.8 01:35:16 10° WNW 01:38:21 62° SSW 01:41:27 10° SE
STARLINK-1332 2.8 01:35:33 10° WNW 01:38:39 61° SSW 01:41:44 10° SE
STARLINK-1348 2.8 01:35:53 10° WNW 01:38:59 61° SSW 01:42:04 10° SE
Cosmos 2218 Rocket 4.4 01:32:50 10° S 01:39:08 69° E 01:45:31 10° NNE
Cosmos 1151 Rocket 3.9 01:34:50 10° N 01:39:09 53° ENE 01:43:27 10° SSE
STARLINK-1330 2.8 01:36:13 10° WNW 01:39:19 61° SSW 01:42:23 10° SE
Resurs 1-4 Rocket 3.1 01:34:49 10° N 01:39:37 35° WNW 01:44:24 10° SW
STARLINK-1365 3.5 01:35:33 10° WNW 01:39:38 82° SSW 01:43:43 10° ESE
STARLINK-1363 2.8 01:36:33 10° WNW 01:39:38 60° SSW 01:42:43 10° SE
STARLINK-1288 3.7 01:35:33 10° WSW 01:39:40 71° SSE 01:43:49 10° ENE
STARLINK-61 3.7 01:35:55 10° SW 01:39:45 58° SSE 01:43:38 10° ENE
STARLINK-1337 2.8 01:36:56 10° WNW 01:40:01 60° SSW 01:43:06 10° SE
STARLINK-1342 2.9 01:37:15 10° WNW 01:40:20 60° SSW 01:43:25 10° SE
Cosmos 1461 4.1 01:35:52 10° NW 01:40:26 54° NE 01:45:04 10° ESE
STARLINK-1364 2.9 01:37:35 10° WNW 01:40:40 59° SSW 01:43:45 10° SE
STARLINK-1376 2.9 01:37:55 10° WNW 01:41:00 59° SSW 01:44:04 10° SE
STARLINK-1268 3.6 01:38:06 10° W 01:41:08 53° N 01:44:11 10° ENE
STARLINK-1360 2.9 01:38:15 10° WNW 01:41:21 59° SSW 01:44:26 10° SE
STARLINK-1361 2.9 01:38:36 10° WNW 01:41:41 58° SSW 01:44:45 10° SE
STARLINK-1367 2.9 01:38:52 10° WNW 01:41:59 58° SSW 01:45:06 10° SE
STARLINK-1366 2.9 01:39:15 10° WNW 01:42:20 58° SSW 01:45:24 10° SE
STARLINK-1289 3.9 01:38:38 10° W 01:42:22 61° N 01:46:06 10° ENE
STARLINK-54 4.4 01:40:50 10° SSW 01:44:04 32° SE 01:47:19 10° E
Cosmos 1076 Rocket 4.0 01:40:06 10° SSW 01:44:19 47° WNW 01:48:34 10° N
STARLINK-1301 3.9 01:40:32 10° W 01:44:21 61° N 01:48:11 10° ENE
STARLINK-1308 3.6 01:40:33 10° WSW 01:44:41 76° SSE 01:48:51 10° ENE
STARLINK-66 3.8 01:41:55 10° W 01:45:03 50° N 01:48:12 10° ENE
STARLINK-77 4.5 01:42:19 10° SSW 01:45:31 30° SE 01:48:45 10° E
STARLINK-1303 3.9 01:42:08 10° W 01:45:51 60° N 01:49:35 10° ENE
CZ-4B R/B 4.3 01:43:46 10° ESE 01:45:53 17° ENE 01:48:02 10° NNE
Cosmos 2151 3.1 01:41:41 10° S 01:45:59 83° E 01:50:19 10° NNE
COBE Rocket 4.0 01:41:08 10° S 01:46:13 73° W 01:51:25 10° NNW
STARLINK-1316 3.7 01:43:20 10° W 01:46:25 52° N 01:49:29 10° ENE
Lacrosse 5 rocket 3.9 01:46:13 10° SE 01:46:51 10° SE 01:47:29 10° ESE
STARLINK-1257 3.7 01:44:14 10° W 01:47:18 52° N 01:50:24 10° ENE
H-2A R/B 2.4 01:42:59 10° SSE 01:47:25 78° ENE 01:51:58 10° NNW
Cosmos 1766 Rocket 4.0 01:43:53 10° S 01:48:08 61° E 01:52:25 10° NNE
STARLINK-1256 3.7 01:45:13 10° W 01:48:16 52° N 01:51:21 10° ENE
STARLINK-58 3.5 01:45:33 10° W 01:48:42 57° N 01:51:51 10° ENE
STARLINK-1213 3.7 01:46:06 10° W 01:49:10 51° N 01:52:14 10° ENE
STARLINK-1312 3.9 01:45:38 10° W 01:49:22 59° N 01:53:06 10° ENE
STARLINK-52 4.1 01:47:00 10° W 01:49:36 23° SW 01:52:12 10° SSE
STARLINK-1338 3.5 01:45:46 10° WNW 01:49:45 74° SSW 01:53:43 10° ESE
STARLINK-1263 3.7 01:47:00 10° W 01:50:03 51° N 01:53:07 10° ENE
Spot 4 Rocket 4.5 01:45:15 10° NNE 01:50:22 63° ESE 01:55:28 10° S
STARLINK-79 4.4 01:47:07 10° SSW 01:50:24 32° SE 01:53:41 10° E
Okean 3 Rocket 3.9 01:46:27 10° S 01:50:59 76° E 01:55:32 10° NNE
STARLINK-1259 3.7 01:47:56 10° W 01:50:59 51° N 01:54:03 10° ENE
STARLINK-1265 3.7 01:48:18 10° W 01:51:24 51° N 01:54:30 10° ENE
STARLINK-1285 3.7 01:48:48 10° W 01:51:53 51° N 01:54:57 10° ENE
STARLINK-78 4.3 01:48:43 10° SSW 01:52:02 34° SE 01:55:20 10° E
STARLINK-1296 3.7 01:50:37 10° W 01:53:42 51° N 01:56:45 10° ENE
Cosmos 1408 2.9 01:50:06 10° SSW 01:53:42 51° WNW 01:57:18 10° N
STARLINK-57 4.2 01:50:23 10° SSW 01:53:42 36° SE 01:57:03 10° ENE
STARLINK-1260 3.7 01:51:31 10° W 01:54:35 50° N 01:57:40 10° ENE
STARLINK-1304 3.6 01:50:28 10° WSW 01:54:38 83° SSE 01:58:47 10° ENE
STARLINK-49 4.3 01:51:55 10° SSW 01:55:14 35° SE 01:58:34 10° ENE
SL-19 R/B 4.5 01:51:35 10° NNE 01:56:02 86° ESE 01:59:49 10° SSW
